Dauntless Aviation
Airports Europe United Kingdom
EGPY

Dounreay/Thurso Airport (Closed)

Thurso, UNITED KINGDOM

Airport Info
Suggest Updated Information for this Airport

Location

Latitude / Longitude: 58°35'2"N / 3°43'36"W
  58°35.034'N / 3°43.614'W
  58.5839 / -3.7269

Runway Information

Runway 04 /22

Dimensions: 3300 x 100 ft.
Surface: U
 
Runway 04
Runway 22
Latitude: 58.579444 58.586944
Longitude: -3.731389 -3.721667
Elevation: 130 ft. 130 ft.
Runway true heading: 33.4 213.4
 
Satellite photo at:
Airport distance calculator
From:
Weather Reports

METAR

EGPC
22.2nm E
EGPC 201220Z VRB03KT 9999 FEW006 SCT012 13/12 Q1000
EGPA
34.2nm NE
EGPA 201220Z 26005KT 9999 VCSH SCT007 SCT012 BKN037 14/13 Q1000

TAF

EGPC
22.2nm E
TAF EGPC 201058Z 2012/2021 22006KT 9999 FEW015 SCT030 PROB40 TEMPO 2012/2021 6000 -RADZ BKN008 BECMG 2018/2021 13010KT
EGPA
34.2nm NE
TAF EGPA 201058Z 2012/2021 23006KT 9999 SCT015 PROB40 TEMPO 2012/2021 6000 -RADZ BKN006 BECMG 2018/2021 12010KT
Safelog

 

Dauntless Aviation

© 2007-2017 Dauntless Aviation, all rights reserved
Information provided via PilotNav comes from a variety of official and unofficial data sources. As errors are possible, do not use PilotNav for primary flight planning purposes. Verify any information that you receive via PilotNav with current and canonical charts and other official documents. The material in this database is subject to database copyrights held by Dauntless Aviation and may not be copied without the express permission of Dauntless Aviation - licenses for use of part of all of this data are available for purchase; enquire via the Dauntless Aviation helpdesk. A number of mechanisms and markers exist in the database to protect against and identify infringement / copyright. Automated queries against this website are stictly prohibited, and all activity is logged and analyzed.